Hlavní strana
METAR-TAF:

METAR-TAF

Letiště :

Monte Cimone, Itálie

zeměpisná šířka: 44-12N, zeměpisná délka: 010-42E, výška: 2165 m

Aktuální stav počasí

Zpráva byla vytvořena před 36 minutami, v 14:55 UTC
Severovýchodní vítr 35 kt
Teplota -6°C
Vlhkost vzduchu 100%
Tlak 1021 hPa
Viditelnost do 50 m
mrznoucí mlha

METAR: LIVC 201455Z 04035KT 0000 FZFG VV/// M06/M06 Q1021 RMK MON INVIS VAL INVIS VIS MIN 0000

Čas: 16:31 (15:31 UTC)


TAF: chybějící

Stav a předpovědi počasí z více než 4 000 letišť (zprávy METAR a TAF).

Červené a žluté tečky na mapě představují dostupné meteorologické stanice.

Když kurzor umístíte na tečku, zobrazí se název stanice.

Pak kliknutím zobrazíte stav a předpověď počasí.

Chcete-li změnit mapu, kliknutím na zelené tlačítko se znaménkem +mapu přiblížíte, kliknutím na zelené tlačítko se znaménkem – mapu oddálíte a kliknutím na zelené šipky přejdete na sousední mapy.


METAR-TAF: